Regional Weather Roundup
Issued by NWS

Home | Current Version | Previous Version | Graphics & Text | Print | Product List | Glossary On
Versions: 1 2 3 4 5 6 7 8 9 10 11 12 13 14 15 16 17 18 19 20 21 22 23 24 25 26 27 28 29 30 31 32 33 34 35 36 37 38 39 40 41 42 43 44 45 46 47 48 49 50
801
ASUS43 KDTX 282010
RWRMI
MICHIGAN HOURLY REGIONAL WEATHER ROUNDUP
NATIONAL WEATHER SERVICE DETROIT/PONTIAC MI
400 PM EDT THU JUL 28 2016

NOTE: "FAIR" INDICATES FEW OR NO CLOUDS BELOW 12,000 FEET WITH NO
SIGNIFICANT WEATHER AND/OR OBSTRUCTION TO VISIBILITY.

MIZ047>049-052>055-059>063-066>070-074>076-081>083-282100-
SOUTHEAST LOWER MICHIGAN

CITY           SKY/WX    TMP DP  RH WIND       PRES   REMARKS
ADRIAN         CLOUDY    85  65  51 E5        29.89F
ALMA           SUNNY     82  63  52 E3        29.93S
ANN ARBOR      CLOUDY    85  64  49 N6        29.88F
BAD AXE        MOSUNNY   78  57  48 NE9       29.95S
CARO           MOSUNNY   83  64  52 N3        29.91F
DETROIT CITY   MOSUNNY   83  65  54 E9        29.88F
DETROIT        PTSUNNY   87  65  47 NE7       29.88F
FLINT          PTSUNNY   86  62  44 NE7       29.90F
GROSSE ILE     MOSUNNY   85  65  50 NE6       29.87F
HILLSDALE      CLOUDY    83  64  53 CALM      29.90F
HOWELL         PTSUNNY   83  61  48 NE7       29.91S

CITY           SKY/WX    TMP DP  RH WIND       PRES   REMARKS
JACKSON        PTSUNNY   84  64  50 VRB5      29.90F
LAMBERTVILLE   PTSUNNY   85  69  57 E6        29.88F
LANSING        MOSUNNY   85  63  47 NE9       29.90F
LAPEER         FAIR      82  61  49 NE7       29.92F
MASON          PTSUNNY   83  64  52 E3        29.91S
MONROE         MOSUNNY   84  69  59 SE7       29.87F
PONTIAC        PTSUNNY   83  64  52 NE9       29.90F
PORT HOPE        N/A     73  65  75 VRB6      29.94S
PORT HURON     PTSUNNY   79  63  57 N6        29.90F
TRI CITIES     CLOUDY    78  66  66 NE13      29.94S
MIDLAND        FAIR      80  54  40 NE9       29.93S
TROY           MOSUNNY   85  57  38 N8        29.91F
SAGINAW HB     MOSUNNY   79  64  61 N16       29.93R
$$
MIZ043>046-050>051-056>058-064>065-071>073-077>080-282100-
SOUTHWEST LOWER MICHIGAN

CITY           SKY/WX    TMP DP  RH WIND       PRES   REMARKS
BATTLE CREEK   SUNNY     80  64  58 CALM      29.91S
BENTON HARBOR  CLOUDY    82  65  56 CALM      29.88S
BIG RAPIDS     MOSUNNY   81  63  54 E7        29.93S
COLDWATER      MOSUNNY   82  67  59 NE6       29.90F
FREMONT        FAIR      82  71  69 E5        29.90S
HOLLAND        MOSUNNY   85  67  54 E3        29.89F
GRAND RAPIDS   PTSUNNY   84  67  56 E12       29.90F
IONIA          PTSUNNY   82  65  56 E9        29.90S
KALAMAZOO      MOSUNNY   85  66  53 E5        29.89F
LUDINGTON      CLOUDY    78  66  67 N8        29.92R
MARSHALL       MOSUNNY   84  65  53 E3        29.90F
MOUNT PLEASANT SUNNY     82  59  45 NE7       29.93S
MUSKEGON       LGT RAIN  73  69  87 CALM      29.90F
SOUTH HAVEN    CLOUDY    80  68  65 N6        29.88S
$$
MIZ016>042-282100-
NORTHERN LOWER MICHIGAN

CITY           SKY/WX    TMP DP  RH WIND       PRES   REMARKS
ALPENA         PTSUNNY   78  56  46 N7        29.97S
BEAVER ISLAND  SUNNY     77  59  54 N7        29.99F
BELLAIRE       SUNNY     80  56  43 E5        29.95F
CADILLAC       CLOUDY    76  61  60 E6        29.96F
CHARLEVOIX     SUNNY     74  60  61 N7        30.01S
FRANKFORT      PTSUNNY   74  63  69 N8        29.95F
GAYLORD        MOSUNNY   79  57  46 NE8       29.98F
GRAYLING       CLOUDY    80  60  50 N10       29.97S
HARBOR SPRINGS PTSUNNY   76  61  59 CALM      29.97F
HOUGHTON LAKE  LGT RAIN  76  61  59 W6        29.97F
MANISTEE       CLOUDY    74  63  68 VRB3      29.94S HAZE
OSCODA         PTSUNNY   76  60  58 E12       29.95S
PELLSTON       SUNNY     78  55  44 E10       29.98F
ROGERS CITY    SUNNY     72  60  67 N7        30.00S
TRAVERSE CITY  CLOUDY    76  62  62 N9        29.94F
$$
MIZ007>008-015-282100-
EASTERN UPPER MICHIGAN

CITY           SKY/WX    TMP DP  RH WIND       PRES   REMARKS
KINROSS        SUNNY     76  54  46 NW16      29.99F
MACKINAC ISLAN SUNNY     75  57  52 E5        29.99S
S. S. MARIE    SUNNY     77  55  46 NW12      29.98F
MUNISING         N/A     70  62  76 NE18      30.05R
$$
MIZ004>006-011>014-085-282100-
CENTRAL UPPER MICHIGAN

CITY           SKY/WX    TMP DP  RH WIND       PRES   REMARKS
MANISTIQUE     CLOUDY    79  59  50 NE8       29.99S
ESCANABA       CLOUDY    75  61  60 E3        29.98F
MENOMINEE        N/A    N/A N/A N/A MISG        N/A
SAWYER-GWINN   SUNNY     68  52  56 NE16      30.07S
$$
MIZ001>003-009>011-084-282100-
WESTERN UPPER MICHIGAN

CITY           SKY/WX    TMP DP  RH WIND       PRES   REMARKS
IRON MOUNTAIN  CLOUDY    76  55  48 N13       30.01F
HOUGHTON       MOSUNNY   70  53  54 E8        30.09S
COPPER HARBOR    N/A     65  55  70 NE6       30.09F
IRONWOOD       CLOUDY    72  59  64 NE10G16   30.04S
$$

ABBREVIATIONS USED IN REMARKS
   TC - TEMPERATURE IN CELSIUS
  WCI - WIND CHILL INDEX
   HX - HEAT INDEX
  VSB - VISIBILITY





USA.gov is the U.S. government's official web portal to all federal, state and local government web resources and services.